Location: Cedar Springs
(43.2230°N, 85.5510°W)
Time: 19:09:04
(UTC-05:00)

Cosmos 2278 Rocket - Visible Passes

Search period start: 22 December 2014 00:00
Search period end: 01 January 2015 00:00
Orbit: 841 x 846 km, 71.0° (Epoch: 21 December)

Date Brightness Start Highest point End Pass type
(mag) Time Alt. Az. Time Alt. Az. Time Alt. Az.
22 Dec 4.4 05:33:38 10° N 05:37:42 20° NE 05:41:46 10° E visible
22 Dec 2.2 07:16:46 10° NNW 07:22:25 75° WSW 07:28:03 10° SSE visible
23 Dec 4.4 05:19:44 12° N 05:23:11 19° NE 05:27:09 10° E visible
23 Dec 2.2 07:02:16 10° NNW 07:07:57 78° WSW 07:13:35 10° SSE visible
24 Dec 4.5 05:05:58 14° NNE 05:08:40 19° NE 05:12:32 10° E visible
24 Dec 2.2 06:47:51 10° NNW 06:53:28 81° WSW 06:59:07 10° SSE visible
25 Dec 4.4 04:52:16 16° NNE 04:54:09 18° NE 04:57:55 10° E visible
25 Dec 2.1 06:34:09 15° NNW 06:38:59 84° WSW 06:44:38 10° SSE visible
26 Dec 4.5 04:38:39 17° NNE 04:39:37 17° NE 04:43:17 10° E visible
26 Dec 2.1 06:20:32 21° NNW 06:24:30 87° WSW 06:30:09 10° SSE visible
27 Dec 4.5 04:25:06 17° NE 04:25:06 17° NE 04:28:39 10° E visible
27 Dec 2.1 06:07:00 29° NNW 06:10:01 89° ENE 06:15:40 10° SSE visible
27 Dec 4.0 19:14:30 10° SSE 19:15:41 15° SE 19:15:41 15° SE visible
27 Dec 4.7 20:56:53 10° SW 20:57:36 14° SW 20:57:36 14° SW visible
28 Dec 4.7 04:11:38 16° ENE 04:11:38 16° ENE 04:14:01 10° E visible
28 Dec 2.1 05:53:32 43° NNW 05:55:31 86° ENE 06:01:11 10° SSE visible
28 Dec 3.9 07:36:13 10° WNW 07:38:46 13° W 07:41:18 10° WSW visible
28 Dec 3.7 19:00:08 10° SSE 19:02:35 19° SE 19:02:35 19° SE visible
28 Dec 4.1 20:42:22 10° SW 20:44:31 23° SW 20:44:31 23° SW visible
29 Dec 4.9 03:58:15 13° ENE 03:58:15 13° ENE 03:59:22 10° E visible
29 Dec 2.1 05:40:09 65° N 05:41:02 83° ENE 05:46:42 10° SSE visible
29 Dec 3.9 07:22:03 11° WNW 07:24:19 14° W 07:27:04 10° SW visible
29 Dec 3.5 18:45:47 10° SSE 18:49:28 21° ESE 18:49:28 21° ESE visible
29 Dec 3.4 20:27:51 10° SW 20:31:23 38° WSW 20:31:23 38° WSW visible
30 Dec 2.2 05:26:51 77° ESE 05:26:51 77° ESE 05:32:12 10° SSE visible
30 Dec 3.8 07:08:46 14° W 07:09:51 15° W 07:12:49 10° SW visible
30 Dec 3.4 18:31:26 10° SE 18:35:22 20° E 18:36:17 19° E visible
30 Dec 2.7 20:13:20 10° SW 20:18:12 56° W 20:18:12 56° W visible
31 Dec 2.9 05:13:37 49° SE 05:13:37 49° SE 05:17:42 10° SSE visible
31 Dec 3.7 06:55:32 15° W 06:55:32 15° W 06:58:32 10° SW visible
31 Dec 3.5 18:17:05 10° SE 18:20:54 19° E 18:23:02 16° ENE visible
31 Dec 2.5 19:58:49 10° SW 20:04:25 64° WNW 20:04:57 60° NNW visible
